Location: Willingham
(52.3167°N, 0.0667°E)
Time: 17:14:10
(UTC+00:00)

SL-16 R/B - Pass Details

Date: 19 May 2025
Orbit: 841 x 844 km, 71.0° (Epoch: 13 June)

Event Time Altitude Azimuth Distance (km) Brightness Sun altitude
Rises 22:39:25 0° 329° (NNW) 3,415 7.0 -15.8°
Reaches altitude 10° 22:41:53 10° 331° (NNW) 2,477 5.9 -15.9°
Maximum altitude 22:47:35 75° 57° (ENE) 880 2.3 -16.2°
Enters shadow 22:51:13 23° 140° (SE) 1,722 3.3 -16.3°
